This demonstration page uses our WeatherBlox Daily Observations layout. Learn more.

Left ArrowRight Arrow

36.17497, -115.13722

Hourly Observations for March 11, 2015

Temp ( °F °C ) Dew Point ( °F °C ) Humidity (%) Winds ( mph kmh ) Pressure ( in mb ) Visibility ( mi km ) Precip ( " mm )
12:53 am 00:53 Clear 59 15 28 -2.2 31 31 NW 5 7 30.06 1018 10 16 0.00 0.00
1:53 am 01:53 Clear 58 14.4 28 -2.2 32 32 NNW 3 6 30.07 1018 10 16 0.00 0.00
2:53 am 02:53 Clear 56 13.3 29 -1.7 36 36 NNW 5 7 30.06 1018 10 16 0.00 0.00
3:53 am 03:53 Clear 57 13.9 27 -2.8 32 32 W 6 9 30.06 1018 10 16 0.00 0.00
4:53 am 04:53 Clear 55 12.8 28 -2.2 35 35 NW 3 6 30.06 1018 10 16 0.00 0.00
5:53 am 05:53 Clear 56 13.3 29 -1.7 36 36 NW 3 6 30.08 1019 10 16 0.00 0.00
6:53 am 06:53 Clear 57 13.9 28 -2.2 33 33 Calm 30.08 1019 10 16 0.00 0.00
7:53 am 07:53 Sunny 58 14.4 28 -2.2 32 32 Calm 30.10 1019 10 16 0.00 0.00
8:53 am 08:53 Sunny 60 15.6 28 -2.2 30 30 E 3 6 30.12 1020 10 16 0.00 0.00
9:53 am 09:53 Sunny 63 17.2 24 -4.4 23 23 SSE 5 7 30.14 1021 10 16 0.00 0.00
10:53 am 10:53 Sunny 65 18.3 22 -5.6 19 19 SSE 6 9 30.14 1021 10 16 0.00 0.00
11:53 am 11:53 Sunny 66 18.9 23 -5 19 19 SE 6 9 30.14 1021 10 16 0.00 0.00
12:53 pm 12:53 Sunny 67 19.4 23 -5 19 19 SSE 3 6 30.13 1020 10 16 0.00 0.00
1:53 pm 13:53 Sunny 68 20 23 -5 18 18 Calm 30.11 1020 10 16 0.00 0.00
2:53 pm 14:53 Sunny 69 20.6 24 -4.4 18 18 Calm 30.09 1019 10 16 0.00 0.00
3:53 pm 15:53 Sunny 69 20.6 23 -5 17 17 Calm 30.09 1019 10 16 0.00 0.00
4:53 pm 16:53 Sunny 70 21.1 23 -5 17 17 N 3 6 30.08 1019 10 16 0.00 0.00
5:53 pm 17:53 Cloudy 69 20.6 26 -3.3 20 20 NW 8 13 30.08 1019 10 16 0.00 0.00
6:53 pm 18:53 Cloudy 68 20 33 0.6 27 27 WNW 15 24 30.10 1019 10 16 0.00 0.00
7:53 pm 19:53 Cloudy 66 18.9 36 2.2 33 33 W 15 24 30.13 1020 10 16 0.00 0.03
8:53 pm 20:53 Cloudy 66 18.9 35 1.7 32 32 NW 15 24 30.12 1020 10 16 0.00 0.03
9:53 pm 21:53 Cloudy 65 18.3 35 1.7 33 33 NW 12 19 30.13 1020 10 16 0.00 0.00
10:53 pm 22:53 Cloudy 64 17.8 37 2.8 37 37 NNW 8 13 30.14 1021 10 16 0.00 0.00
11:53 pm 23:53 Cloudy 63 17.2 37 2.8 38 38 N 6 9 30.13 1020 10 16 0.00 0.00

Powered by AerisWeather